COSMOS 2024 (ETALON 2)

Satellite information

Favourite Embed

Satellite Type and Status

PAYLOADIN ORBIT

Key statistics

Satellite COSMOS 2024 (ETALON 2) at a glance.

Uptime

13187

Days in orbit

Revolutions

≈ 2.1

Per day

Orbit

MEO

Medium Earth Orbit

Inclination

65.1

Latest

Satellite identification and parameters

Extended collection of information and parameters for COSMOS 2024 (ETALON 2).

Object identification

Identified? True

Debris? False

Object name: COSMOS 2024 (ETALON 2)

International designator: 1989-039C

Object number (NORAD): 20026

Object ID (CCSDS): 20026

Country: COMMONWEALTH OF INDEPENDENT STATES (CIS)

Current information (Y/N): Y

RCS size: LARGE

Orbital parameters

Period: 675.408 minutes

Inclination: 65.1424 deg

SMA: 25499.841 km

Apoapsis: 19173.144 km

Periapsis: 19070.267 km

RAAN: 322.382 deg

Eccentricy: 0.0020172

Argument of periapsis: 214.8404 deg

Mean anomaly: 159.161 deg

Mean motion: 2.13204595 rev/day

Mean motion (dot): -0.00000071 rev/day2

B* drag term: 0.0 1/REarth

Two-line elements (TLE)

Creation date: July 8, 2025, 2:27 a.m.

Reference frame: TEME

Reference center: EARTH

Epoch: July 7, 2025, 6:33 p.m. UTC

TLE line 0: 0 COSMOS 2024 (ETALON 2)

TLE line 1: 1 20026U 89039C 25188.77339293 -.00000071 00000-0 00000-0 0 9995

TLE line 2: 2 20026 65.1424 322.3820 0020172 214.8404 159.1610 2.13204595281161

Live tracking on map

Real-time ground track for satellite COSMOS 2024 (ETALON 2).

In-orbit conjunctions

A list of the most updated potential collisions computed for object COSMOS 2024 (ETALON 2).

Target Orbit TCA Probability of collision Miss distance Type
COSMOS 1948 (GLONASS) MEO 2025-05-18 12:00:08 TBA 4412.0 (m) PAYLOAD
FREGAT R/B MEO 2025-02-11 02:42:05 TBA 4370.0 (m) ROCKET BODY

Associated space launch

GLONASS navigation satellites

COSMOS 2024 (ETALON 2) was lifted into orbit during the mission ‘Proton | Uragan 34 & 35’, on board a Proton space rocket.

The launch took place on May 31, 1989, 8:31 a.m. from 200/40.

For more information about the launch, click the button.

Launch to space Proton | Uragan 34 & 35
Proton | Uragan 34 & 35

Agency: N/A

Status: Launch Successful

Launch date: May 31, 1989, 8:31 a.m. UTC

Rocket: Proton

Launch pad: 200/40

Location: Baikonur Cosmodrome, Republic of Kazakhstan

...

Latest news about this satellite

There are no fresh news available about this satellite. Check back as we update our databases every day.


Newsletter sign-up

Weekly statistics, charts and insights to help you stay on top of the space industry.